SCP
-0 0 -0 -0 -0 -0 -0 -0 -0 -0 -0 -0 -0 -0 -0 -0 -0 -0 -0 -0 -0 -0 -0 0 0 0 0 0 0 -0 -0 -0
-0 -0 -0 -0 -0 -0 -0 -0 -0 -0 -0 -0 -0 -0 -0 0 -0 -0 -0 -0 -0 -0 -0 0 0 0 0 0 0 0 -0 -0
0 0 0 -0 -0 -0 -0 -0 -0 -0 -0 -0 -0 -0 -0 -0 -0 -0 -0 -0 -0 -0 -0 -0 -0 -0 0 0 0 0 0 0
0 0 0 -0 -0 -0 -0 -0 -0 -0 -0 -0 -0 0 0 0 0 -0 -0 -0 -0 -0 -0 -0 -0 -0 0 0 0 0 0 0
-0 -0 -0 -0 -0 -0 -0 -0 -0 -0 -0 -0 -0 -0 0 0 0 0 0 0 0 0 0 0 0 0 0 0 0 0 0 0
-0 -0 -0 -0 -0 -0 -0 -0 -0 -0 -0 -0 -0 -0 0 0 0 0 0 0 0 0 0 0 0 0 0 0 0 0 0 0
-0 -0 -0 -0 -0 -0 -0 -0 -0 -0 0 0 0 0 0 0 0 0 0 0 0 0 0 0 0 0 0 0 0 0 0 0
-0 -0 -0 -0 -0 -0 -0 0 0 0 0 0 0 0 0 0 0 0 0 0 0 0 0 0 0 0 0 0 0 0 0 0
-0 -0 -0 -0 -0 -0 0 0 0 0 0 0 0 0 0 0 0 0 0 0 0 0 0 0 0 0 0 0 0 0 0 0
-0 -0 -0 -0 -0 -0 0 0 0 0 0 0 0 0 0 0 0 0 0 -0 -0 0 0 0 0 0 0 0 0 0 0 0
-0 0 0 -0 -0 0 0 0 0 0 0 0 0 0 0 0 0 0 0 0 0 0 0 0 0 0 0 0 0 0 0 0
-0 0 0 -0 0 -0 0 0 0 0 -0 -0 -0 0 0 0 0 0 0 0 0 0 0 0 0 0 0 0 0 0 0 0
0 -0 -0 -0 0 0 0 0 0 0 0 -0 -0 -0 0 0 0 0 0 0 0 0 0 0 0 0 0 0 0 0 0 0
-0 -0 -0 -0 0 0 0 0 0 0 0 0 0 0 0 0 0 0 0 0 0 0 0 0 0 0 0 0 0 0 0 0
-0 -0 0 0 0 0 0 0 0 0 0 0 0 0 0 1 0 0 0 0 0 0 0 0 0 0 0 0 0 0 0 0
0 0 0 0 0 0 0 1 1 0 0 0 0 0 0 0 0 0 0 0 0 0 0 0 0 0 0 0 0 0 0 0
0 0 0 0 0 0 1 1 1 0 0 0 0 0 0 0 0 0 0 0 0 0 0 0 0 0 0 0 0 0 0 0
1 0 0 0 1 1 1 1 0 0 0 0 0 0 0 0 0 0 0 0 0 0 0 0 0 0 0 0 0 0 0 0
1 1 1 1 1 1 0 0 0 0 0 0 0 0 0 0 0 0 0 0 0 0 0 0 0 0 0 0 0 0 0 0
Wind_Speed_500mb
50 45 40 36 32 29 27 25 25 25 26 25 25 25 26 26 25 25 25 24 22 21 19 16 15 12 11 10 10 11 12 17
52 47 42 37 33 30 26 25 25 24 23 23 22 23 24 24 24 23 23 22 20 18 16 12 9 7 7 7 8 9 11 15
48 47 42 37 33 30 27 25 24 22 21 20 20 20 20 21 21 21 20 20 19 17 15 12 7 4 4 5 8 11 13 16
46 44 41 37 35 32 29 27 24 22 20 18 17 17 18 18 18 17 17 17 17 15 15 13 9 5 3 3 7 12 14 17
44 43 41 38 36 34 30 27 25 23 21 19 16 15 15 15 14 13 13 14 14 12 12 10 6 3 2 4 5 9 14 16
46 44 43 40 37 34 31 28 26 24 21 19 16 14 13 11 11 11 11 11 11 9 8 8 5 2 4 7 11 14 15 17
48 45 42 41 39 37 33 30 27 25 21 18 15 13 12 12 12 12 12 11 9 6 4 5 7 11 12 13 17 21 22 23
45 45 45 42 40 37 33 31 28 25 22 18 17 15 15 14 14 12 10 11 9 9 3 3 8 11 14 17 21 25 28 28
45 41 41 43 39 35 33 30 26 23 20 18 16 15 16 15 15 15 16 12 12 11 12 10 13 15 19 22 25 26 29 28
47 39 39 40 40 34 31 28 25 20 14 15 15 15 14 11 10 15 13 14 13 15 18 20 20 24 27 30 31 31 32 35
51 46 39 38 35 36 31 30 28 22 12 14 12 10 9 8 9 10 12 16 17 22 21 23 26 29 32 36 36 36 37 36
55 49 47 43 38 41 35 29 33 24 18 15 15 15 16 16 18 20 22 24 27 24 25 28 32 37 39 40 40 41 41 42
62 60 53 51 49 44 35 32 33 30 30 27 25 28 29 28 31 33 33 33 32 29 30 32 40 42 44 43 45 46 46 45
67 63 63 58 58 50 41 31 35 35 35 37 34 30 31 27 30 35 35 37 38 34 40 42 39 38 40 43 44 46 49 51
74 69 70 63 61 54 47 42 44 41 41 45 34 34 30 31 33 38 43 39 33 34 40 38 29 34 36 38 39 41 40 39
78 74 69 70 62 57 55 52 52 48 41 27 32 33 37 39 36 39 34 24 31 30 26 37 35 34 34 38 39 40 40 28
75 66 64 64 54 59 59 56 54 43 38 34 34 34 33 30 30 29 20 20 22 29 25 38 34 24 26 27 28 30 19 25
70 67 65 60 58 60 61 61 54 47 43 37 32 29 27 21 17 19 17 18 22 24 20 20 16 16 16 18 18 16 11 9
64 61 62 62 61 62 60 60 55 54 51 38 23 20 17 14 13 16 18 12 7 6 6 8 11 13 14 15 12 12 11 18
Wind_Direction_500mb
170 166 164 166 170 168 160 150 142 139 136 135 134 130 126 117 113 111 109 107 107 107 101 95 94 83 63 60 52 34 27 30
171 168 171 172 174 171 164 155 152 147 143 141 135 129 125 122 119 117 113 111 112 112 106 97 80 64 48 20 4 2 359 355
173 172 175 176 177 175 170 164 160 155 154 149 141 136 132 130 128 125 119 114 110 107 101 98 86 61 34 354 335 331 325 322
178 176 179 182 181 181 178 173 169 167 164 161 156 149 146 144 140 133 125 117 106 101 95 95 91 75 50 340 324 323 329 313
183 181 186 188 189 188 184 182 180 179 177 174 173 167 160 160 155 147 136 127 122 118 114 110 104 87 50 357 345 336 327 327
189 189 190 194 195 195 191 192 191 190 189 189 185 187 181 180 182 176 170 159 151 147 148 163 169 206 303 322 326 324 324 320
192 192 196 197 199 199 199 199 198 202 201 201 202 208 208 209 210 211 209 194 187 187 156 212 241 261 275 292 299 307 310 312
192 197 199 199 201 203 203 203 204 210 211 213 217 222 229 234 239 239 231 219 240 214 227 280 273 297 294 299 298 299 295 295
194 195 201 203 201 208 208 206 208 215 224 227 232 238 246 254 264 266 251 251 261 267 265 290 274 290 298 298 306 295 298 303
199 200 203 206 205 203 215 212 205 206 231 234 237 246 251 257 270 269 261 266 279 287 286 285 283 284 288 293 297 297 297 300
209 205 211 204 204 203 211 216 203 203 213 212 210 226 234 239 264 286 267 260 275 282 286 287 289 292 292 292 294 295 296 298
220 216 219 216 203 208 202 208 208 208 206 209 224 241 254 258 269 261 263 262 261 278 293 294 294 293 290 291 294 296 298 302
227 227 223 224 217 210 201 205 212 218 223 220 222 234 244 253 264 269 267 278 280 283 288 294 298 296 292 292 293 294 299 303
234 228 223 224 224 215 203 209 219 227 237 242 239 245 246 252 267 275 272 267 269 277 290 288 285 290 293 293 294 299 301 302
243 236 226 225 225 218 212 211 222 230 236 248 250 243 244 263 271 277 281 266 264 271 280 281 281 286 294 300 302 302 307 309
240 234 227 224 225 217 216 215 223 232 235 248 257 258 257 260 263 274 286 299 289 285 302 318 319 325 317 318 317 311 315 311
236 228 220 223 220 218 221 222 227 226 227 244 250 255 264 271 274 278 284 288 298 306 308 305 311 333 328 327 330 333 331 325
221 220 213 213 215 216 220 219 218 219 230 242 249 251 270 275 283 299 294 294 295 296 314 318 330 335 339 350 360 9 341 331
213 211 211 213 214 217 217 216 225 229 233 238 235 241 241 240 256 275 277 282 301 344 5 19 22 13 9 7 7 8 349 330
Wind_Speed_850mb
50 45 40 36 32 29 27 25 25 25 26 25 25 25 26 26 25 25 25 24 22 21 19 16 15 12 11 10 10 11 12 17
52 47 42 37 33 30 26 25 25 24 23 23 22 23 24 24 24 23 23 22 20 18 16 12 9 7 7 7 8 9 11 15
48 47 42 37 33 30 27 25 24 22 21 20 20 20 20 21 21 21 20 20 19 17 15 12 7 4 4 5 8 11 13 16
46 44 41 37 35 32 29 27 24 22 20 18 17 17 18 18 18 17 17 17 17 15 15 13 9 5 3 3 7 12 14 17
44 43 41 38 36 34 30 27 25 23 21 19 16 15 15 15 14 13 13 14 14 12 12 10 6 3 2 4 5 9 14 16
46 44 43 40 37 34 31 28 26 24 21 19 16 14 13 11 11 11 11 11 11 9 8 8 5 2 4 7 11 14 15 17
48 45 42 41 39 37 33 30 27 25 21 18 15 13 12 12 12 12 12 11 9 6 4 5 7 11 12 13 17 21 22 23
45 45 45 42 40 37 33 31 28 25 22 18 17 15 15 14 14 12 10 11 9 9 3 3 8 11 14 17 21 25 28 28
45 41 41 43 39 35 33 30 26 23 20 18 16 15 16 15 15 15 16 12 12 11 12 10 13 15 19 22 25 26 29 28
47 39 39 40 40 34 31 28 25 20 14 15 15 15 14 11 10 15 13 14 13 15 18 20 20 24 27 30 31 31 32 35
51 46 39 38 35 36 31 30 28 22 12 14 12 10 9 8 9 10 12 16 17 22 21 23 26 29 32 36 36 36 37 36
55 49 47 43 38 41 35 29 33 24 18 15 15 15 16 16 18 20 22 24 27 24 25 28 32 37 39 40 40 41 41 42
62 60 53 51 49 44 35 32 33 30 30 27 25 28 29 28 31 33 33 33 32 29 30 32 40 42 44 43 45 46 46 45
67 63 63 58 58 50 41 31 35 35 35 37 34 30 31 27 30 35 35 37 38 34 40 42 39 38 40 43 44 46 49 51
74 69 70 63 61 54 47 42 44 41 41 45 34 34 30 31 33 38 43 39 33 34 40 38 29 34 36 38 39 41 40 39
78 74 69 70 62 57 55 52 52 48 41 27 32 33 37 39 36 39 34 24 31 30 26 37 35 34 34 38 39 40 40 28
75 66 64 64 54 59 59 56 54 43 38 34 34 34 33 30 30 29 20 20 22 29 25 38 34 24 26 27 28 30 19 25
70 67 65 60 58 60 61 61 54 47 43 37 32 29 27 21 17 19 17 18 22 24 20 20 16 16 16 18 18 16 11 9
64 61 62 62 61 62 60 60 55 54 51 38 23 20 17 14 13 16 18 12 7 6 6 8 11 13 14 15 12 12 11 18
Wind_Direction_850mb
170 166 164 166 170 168 160 150 142 139 136 135 134 130 126 117 113 111 109 107 107 107 101 95 94 83 63 60 52 34 27 30
171 168 171 172 174 171 164 155 152 147 143 141 135 129 125 122 119 117 113 111 112 112 106 97 80 64 48 20 4 2 359 355
173 172 175 176 177 175 170 164 160 155 154 149 141 136 132 130 128 125 119 114 110 107 101 98 86 61 34 354 335 331 325 322
178 176 179 182 181 181 178 173 169 167 164 161 156 149 146 144 140 133 125 117 106 101 95 95 91 75 50 340 324 323 329 313
183 181 186 188 189 188 184 182 180 179 177 174 173 167 160 160 155 147 136 127 122 118 114 110 104 87 50 357 345 336 327 327
189 189 190 194 195 195 191 192 191 190 189 189 185 187 181 180 182 176 170 159 151 147 148 163 169 206 303 322 326 324 324 320
192 192 196 197 199 199 199 199 198 202 201 201 202 208 208 209 210 211 209 194 187 187 156 212 241 261 275 292 299 307 310 312
192 197 199 199 201 203 203 203 204 210 211 213 217 222 229 234 239 239 231 219 240 214 227 280 273 297 294 299 298 299 295 295
194 195 201 203 201 208 208 206 208 215 224 227 232 238 246 254 264 266 251 251 261 267 265 290 274 290 298 298 306 295 298 303
199 200 203 206 205 203 215 212 205 206 231 234 237 246 251 257 270 269 261 266 279 287 286 285 283 284 288 293 297 297 297 300
209 205 211 204 204 203 211 216 203 203 213 212 210 226 234 239 264 286 267 260 275 282 286 287 289 292 292 292 294 295 296 298
220 216 219 216 203 208 202 208 208 208 206 209 224 241 254 258 269 261 263 262 261 278 293 294 294 293 290 291 294 296 298 302
227 227 223 224 217 210 201 205 212 218 223 220 222 234 244 253 264 269 267 278 280 283 288 294 298 296 292 292 293 294 299 303
234 228 223 224 224 215 203 209 219 227 237 242 239 245 246 252 267 275 272 267 269 277 290 288 285 290 293 293 294 299 301 302
243 236 226 225 225 218 212 211 222 230 236 248 250 243 244 263 271 277 281 266 264 271 280 281 281 286 294 300 302 302 307 309
240 234 227 224 225 217 216 215 223 232 235 248 257 258 257 260 263 274 286 299 289 285 302 318 319 325 317 318 317 311 315 311
236 228 220 223 220 218 221 222 227 226 227 244 250 255 264 271 274 278 284 288 298 306 308 305 311 333 328 327 330 333 331 325
221 220 213 213 215 216 220 219 218 219 230 242 249 251 270 275 283 299 294 294 295 296 314 318 330 335 339 350 360 9 341 331
213 211 211 213 214 217 217 216 225 229 233 238 235 241 241 240 256 275 277 282 301 344 5 19 22 13 9 7 7 8 349 330